Year,Month,Day,Hour,Minute,Value (Times are PST for temperature in C)
2013,05,04,00,00,14.70
2013,05,04,00,01,14.70
2013,05,04,00,02,14.70
2013,05,04,00,03,14.70
2013,05,04,00,04,14.70
2013,05,04,00,05,14.70
2013,05,04,00,06,14.70
2013,05,04,00,07,14.70
2013,05,04,00,08,14.60
2013,05,04,00,09,14.60
2013,05,04,00,10,14.60
2013,05,04,00,11,14.60
2013,05,04,00,12,14.60
2013,05,04,00,13,14.60
2013,05,04,00,14,14.60
2013,05,04,00,15,14.60
2013,05,04,00,16,14.60
2013,05,04,00,17,14.60
2013,05,04,00,18,14.60
2013,05,04,00,19,14.60
2013,05,04,00,20,14.60
2013,05,04,00,21,14.60
2013,05,04,00,22,14.60
2013,05,04,00,23,14.60
2013,05,04,00,24,14.60
2013,05,04,00,25,14.60
2013,05,04,00,26,14.60
2013,05,04,00,27,14.60
2013,05,04,00,28,14.60
2013,05,04,00,29,14.60
2013,05,04,00,30,14.50
2013,05,04,00,31,14.50
2013,05,04,00,32,14.50
2013,05,04,00,33,14.60
2013,05,04,00,34,14.60
2013,05,04,00,35,14.60
2013,05,04,00,36,14.60
2013,05,04,00,37,14.60
2013,05,04,00,38,14.60
2013,05,04,00,39,14.50
2013,05,04,00,40,14.50
2013,05,04,00,41,14.50
2013,05,04,00,42,14.40
2013,05,04,00,43,14.40
2013,05,04,00,44,14.40
2013,05,04,00,45,14.40
2013,05,04,00,46,14.40
2013,05,04,00,47,14.40
2013,05,04,00,48,14.40
2013,05,04,00,49,14.30
2013,05,04,00,50,14.30
2013,05,04,00,51,14.30
2013,05,04,00,52,14.30
2013,05,04,00,53,14.30
2013,05,04,00,54,14.30
2013,05,04,00,55,14.30
2013,05,04,00,56,14.30
2013,05,04,00,57,14.30
2013,05,04,00,58,14.20
2013,05,04,00,59,14.20
2013,05,04,01,00,14.20
2013,05,04,01,01,14.20
2013,05,04,01,02,14.20
2013,05,04,01,03,14.20
2013,05,04,01,04,14.20
2013,05,04,01,05,14.10
2013,05,04,01,06,14.10
2013,05,04,01,07,14.10
2013,05,04,01,08,14.10
2013,05,04,01,09,14.10
2013,05,04,01,10,14.10
2013,05,04,01,11,14.00
2013,05,04,01,12,14.00
2013,05,04,01,13,14.00
2013,05,04,01,14,14.00
2013,05,04,01,15,14.00
2013,05,04,01,16,14.00
2013,05,04,01,17,13.90
2013,05,04,01,18,13.90
2013,05,04,01,19,13.90
2013,05,04,01,20,13.90
2013,05,04,01,21,13.90
2013,05,04,01,22,13.80
2013,05,04,01,23,13.80
2013,05,04,01,24,13.80
2013,05,04,01,25,13.80
2013,05,04,01,26,13.80
2013,05,04,01,27,13.80
2013,05,04,01,28,13.90
2013,05,04,01,29,13.90
2013,05,04,01,30,13.90
2013,05,04,01,31,13.90
2013,05,04,01,32,13.90
2013,05,04,01,33,14.00
2013,05,04,01,34,14.00
2013,05,04,01,35,14.00
2013,05,04,01,36,14.00
2013,05,04,01,37,14.00
2013,05,04,01,38,14.00
2013,05,04,01,39,14.00
2013,05,04,01,40,13.90
2013,05,04,01,41,13.90
2013,05,04,01,42,13.90
2013,05,04,01,43,13.90
2013,05,04,01,44,13.90
2013,05,04,01,45,13.90
2013,05,04,01,46,13.90
2013,05,04,01,47,13.90
2013,05,04,01,48,13.90
2013,05,04,01,49,13.90
2013,05,04,01,50,13.90
2013,05,04,01,51,13.90
2013,05,04,01,52,13.80
2013,05,04,01,53,13.80
2013,05,04,01,54,13.80
2013,05,04,01,55,13.80
2013,05,04,01,56,13.80
2013,05,04,01,57,13.80
2013,05,04,01,58,13.70
2013,05,04,01,59,13.80
2013,05,04,02,00,13.80
2013,05,04,02,01,13.80
2013,05,04,02,02,13.80
2013,05,04,02,03,13.80
2013,05,04,02,04,13.80
2013,05,04,02,05,13.80
2013,05,04,02,06,13.80
2013,05,04,02,07,13.80
2013,05,04,02,08,13.70
2013,05,04,02,09,13.70
2013,05,04,02,10,13.70
2013,05,04,02,11,13.70
2013,05,04,02,12,13.70
2013,05,04,02,13,13.70
2013,05,04,02,14,13.70
2013,05,04,02,15,13.70
2013,05,04,02,16,13.70
2013,05,04,02,17,13.70
2013,05,04,02,18,13.70
2013,05,04,02,19,13.70
2013,05,04,02,20,13.70
2013,05,04,02,21,13.60
2013,05,04,02,22,13.60
2013,05,04,02,23,13.60
2013,05,04,02,24,13.60
2013,05,04,02,25,13.50
2013,05,04,02,26,13.50
2013,05,04,02,27,13.50
2013,05,04,02,28,13.50
2013,05,04,02,29,13.50
2013,05,04,02,30,13.50
2013,05,04,02,31,13.40
2013,05,04,02,32,13.40
2013,05,04,02,33,13.40
2013,05,04,02,34,13.40
2013,05,04,02,35,13.40
2013,05,04,02,36,13.40
2013,05,04,02,37,13.40
2013,05,04,02,38,13.40
2013,05,04,02,39,13.40
2013,05,04,02,40,13.40
2013,05,04,02,41,13.40
2013,05,04,02,42,13.40
2013,05,04,02,43,13.40
2013,05,04,02,44,13.30
2013,05,04,02,45,13.30
2013,05,04,02,46,13.30
2013,05,04,02,47,13.30
2013,05,04,02,48,13.30
2013,05,04,02,49,13.30
2013,05,04,02,50,13.30
2013,05,04,02,51,13.30
2013,05,04,02,52,13.30
2013,05,04,02,53,13.30
2013,05,04,02,54,13.30
2013,05,04,02,55,13.30
2013,05,04,02,56,13.30
2013,05,04,02,57,13.30
2013,05,04,02,58,13.30
2013,05,04,02,59,13.30
2013,05,04,03,00,13.20
2013,05,04,03,01,13.20
2013,05,04,03,02,13.20
2013,05,04,03,03,13.20
2013,05,04,03,06,13.10
2013,05,04,03,07,13.10
2013,05,04,03,08,13.00
2013,05,04,03,09,13.00
2013,05,04,03,10,13.00
2013,05,04,03,11,12.90
2013,05,04,03,12,12.90
2013,05,04,03,13,12.90
2013,05,04,03,14,12.90
2013,05,04,03,15,12.80
2013,05,04,03,16,12.80
2013,05,04,03,17,12.80
2013,05,04,03,18,12.80
2013,05,04,03,19,12.80
2013,05,04,03,20,12.80
2013,05,04,03,21,12.70
2013,05,04,03,22,12.70
2013,05,04,03,23,12.70
2013,05,04,03,24,12.70
2013,05,04,03,25,12.70
2013,05,04,03,26,12.60
2013,05,04,03,27,12.60
2013,05,04,03,28,12.60
2013,05,04,03,29,12.60
2013,05,04,03,30,12.50
2013,05,04,03,31,12.50
2013,05,04,03,32,12.50
2013,05,04,03,33,12.40
2013,05,04,03,34,12.40
2013,05,04,03,35,12.40
2013,05,04,03,36,12.30
2013,05,04,03,37,12.30
2013,05,04,03,38,12.30
2013,05,04,03,39,12.30
2013,05,04,03,40,12.30
2013,05,04,03,41,12.30
2013,05,04,03,42,12.30
2013,05,04,03,43,12.20
2013,05,04,03,44,12.20
2013,05,04,03,45,12.20
2013,05,04,03,46,12.20
2013,05,04,03,47,12.20
2013,05,04,03,48,12.10
2013,05,04,03,49,12.10
2013,05,04,03,50,12.10
2013,05,04,03,51,12.10
2013,05,04,03,52,12.10
2013,05,04,03,53,12.00
2013,05,04,03,54,12.00
2013,05,04,03,55,11.90
2013,05,04,03,56,11.90
2013,05,04,03,57,11.90
2013,05,04,03,58,11.90
2013,05,04,03,59,11.80
2013,05,04,04,00,11.90
2013,05,04,04,01,11.90
2013,05,04,04,02,11.90
2013,05,04,04,03,11.90
2013,05,04,04,04,12.00
2013,05,04,04,05,12.00
2013,05,04,04,06,12.00
2013,05,04,04,07,12.00
2013,05,04,04,08,12.00
2013,05,04,04,09,11.90
2013,05,04,04,10,11.90
2013,05,04,04,11,11.90
2013,05,04,04,12,11.90
2013,05,04,04,13,11.90
2013,05,04,04,14,11.90
2013,05,04,04,15,11.90
2013,05,04,04,16,11.80
2013,05,04,04,17,11.80
2013,05,04,04,18,11.80
2013,05,04,04,19,11.80
2013,05,04,04,20,11.80
2013,05,04,04,21,11.70
2013,05,04,04,22,11.70
2013,05,04,04,23,11.70
2013,05,04,04,24,11.70
2013,05,04,04,25,11.70
2013,05,04,04,26,11.60
2013,05,04,04,27,11.60
2013,05,04,04,28,11.60
2013,05,04,04,29,11.50
2013,05,04,04,30,11.50
2013,05,04,04,31,11.50
2013,05,04,04,32,11.50
2013,05,04,04,33,11.40
2013,05,04,04,34,11.40
2013,05,04,04,35,11.40
2013,05,04,04,36,11.40
2013,05,04,04,37,11.30
2013,05,04,04,38,11.30
2013,05,04,04,39,11.30
2013,05,04,04,40,11.30
2013,05,04,04,41,11.30
2013,05,04,04,42,11.20
2013,05,04,04,43,11.20
2013,05,04,04,44,11.20
2013,05,04,04,45,11.20
2013,05,04,04,46,11.20
2013,05,04,04,47,11.20
2013,05,04,04,48,11.20
2013,05,04,04,49,11.20
2013,05,04,04,50,11.20
2013,05,04,04,51,11.20
2013,05,04,04,52,11.20
2013,05,04,04,53,11.20
2013,05,04,04,54,11.20
2013,05,04,04,55,11.10
2013,05,04,04,56,11.10
2013,05,04,04,57,11.10
2013,05,04,04,58,11.10
2013,05,04,04,59,11.00
2013,05,04,05,00,11.00
2013,05,04,05,01,11.00
2013,05,04,05,02,11.00
2013,05,04,05,03,11.00
2013,05,04,05,04,11.00
2013,05,04,05,05,11.00
2013,05,04,05,06,11.00
2013,05,04,05,07,11.00
2013,05,04,05,08,11.00
2013,05,04,05,09,11.00
2013,05,04,05,10,11.00
2013,05,04,05,11,11.00
2013,05,04,05,12,10.90
2013,05,04,05,13,10.90
2013,05,04,05,14,10.90
2013,05,04,05,15,10.90
2013,05,04,05,16,10.90
2013,05,04,05,17,10.90
2013,05,04,05,18,10.90
2013,05,04,05,19,10.90
2013,05,04,05,20,10.90
2013,05,04,05,21,10.90
2013,05,04,05,22,10.90
2013,05,04,05,23,10.90
2013,05,04,05,24,10.90
2013,05,04,05,25,10.90
2013,05,04,05,26,10.90
2013,05,04,05,27,10.90
2013,05,04,05,28,10.80
2013,05,04,05,29,10.80
2013,05,04,05,30,10.80
2013,05,04,05,31,10.80
2013,05,04,05,32,10.80
2013,05,04,05,33,10.80
2013,05,04,05,34,10.80
2013,05,04,05,35,10.80
2013,05,04,05,36,10.70
2013,05,04,05,37,10.70
2013,05,04,05,38,10.70
2013,05,04,05,39,10.70
2013,05,04,05,40,10.70
2013,05,04,05,41,10.70
2013,05,04,05,42,10.70
2013,05,04,05,43,10.70
2013,05,04,05,44,10.70
2013,05,04,05,45,10.80
2013,05,04,05,46,10.80
2013,05,04,05,47,10.80
2013,05,04,05,48,10.80
2013,05,04,05,49,10.80
2013,05,04,05,50,10.80
2013,05,04,05,51,10.70
2013,05,04,05,52,10.70
2013,05,04,05,53,10.70
2013,05,04,05,54,10.70
2013,05,04,05,55,10.70
2013,05,04,05,56,10.70
2013,05,04,05,57,10.70
2013,05,04,05,58,10.70
2013,05,04,05,59,10.70
2013,05,04,06,00,10.70
2013,05,04,06,01,10.70
2013,05,04,06,02,10.70
2013,05,04,06,03,10.70
2013,05,04,06,04,10.70
2013,05,04,06,05,10.70
2013,05,04,06,06,10.80
2013,05,04,06,07,10.80
2013,05,04,06,08,10.80
2013,05,04,06,09,10.70
2013,05,04,06,10,10.70
2013,05,04,06,11,10.70
2013,05,04,06,12,10.70
2013,05,04,06,13,10.70
2013,05,04,06,14,10.70
2013,05,04,06,15,10.70
2013,05,04,06,16,10.70
2013,05,04,06,17,10.70
2013,05,04,06,18,10.70
2013,05,04,06,19,10.60
2013,05,04,06,20,10.60
2013,05,04,06,21,10.60
2013,05,04,06,22,10.60
2013,05,04,06,23,10.60
2013,05,04,06,24,10.60
2013,05,04,06,25,10.60
2013,05,04,06,26,10.60
2013,05,04,06,27,10.70
2013,05,04,06,28,10.70
2013,05,04,06,29,10.70
2013,05,04,06,30,10.70
2013,05,04,06,31,10.70
2013,05,04,06,32,10.70
2013,05,04,06,33,10.80
2013,05,04,06,34,10.80
2013,05,04,06,35,10.80
2013,05,04,06,36,10.80
2013,05,04,06,37,10.90
2013,05,04,06,38,10.90
2013,05,04,06,39,11.00
2013,05,04,06,40,11.00
2013,05,04,06,41,11.10
2013,05,04,06,42,11.10
2013,05,04,06,43,11.20
2013,05,04,06,44,11.20
2013,05,04,06,45,11.20
2013,05,04,06,46,11.30
2013,05,04,06,47,11.30
2013,05,04,06,48,11.30
2013,05,04,06,49,11.40
2013,05,04,06,50,11.40
2013,05,04,06,51,11.50
2013,05,04,06,52,11.50
2013,05,04,06,53,11.50
2013,05,04,06,54,11.60
2013,05,04,06,55,11.60
2013,05,04,06,56,11.60
2013,05,04,06,57,11.60
2013,05,04,06,58,11.60
2013,05,04,06,59,11.60
2013,05,04,07,00,11.60
2013,05,04,07,01,11.60
2013,05,04,07,02,11.60
2013,05,04,07,03,11.60
2013,05,04,07,04,11.60
2013,05,04,07,05,11.60
2013,05,04,07,06,11.70
2013,05,04,07,07,11.70
2013,05,04,07,08,11.70
2013,05,04,07,09,11.70
2013,05,04,07,10,11.70
2013,05,04,07,11,11.70
2013,05,04,07,12,11.70
2013,05,04,07,13,11.70
2013,05,04,07,14,11.80
2013,05,04,07,15,11.80
2013,05,04,07,16,11.80
2013,05,04,07,17,11.80
2013,05,04,07,18,11.80
2013,05,04,07,19,11.80
2013,05,04,07,20,11.80
2013,05,04,07,21,11.80
2013,05,04,07,22,11.80
2013,05,04,07,23,11.90
2013,05,04,07,24,11.90
2013,05,04,07,25,11.90
2013,05,04,07,26,12.00
2013,05,04,07,27,12.00
2013,05,04,07,28,12.10
2013,05,04,07,29,12.10
2013,05,04,07,30,12.10
2013,05,04,07,31,12.20
2013,05,04,07,32,12.20
2013,05,04,07,33,12.20
2013,05,04,07,34,12.30
2013,05,04,07,35,12.30
2013,05,04,07,36,12.30
2013,05,04,07,37,12.40
2013,05,04,07,38,12.40
2013,05,04,07,39,12.50
2013,05,04,07,40,12.50
2013,05,04,07,41,12.60
2013,05,04,07,42,12.60
2013,05,04,07,43,12.70
2013,05,04,07,44,12.70
2013,05,04,07,45,12.80
2013,05,04,07,46,12.80
2013,05,04,07,47,12.80
2013,05,04,07,48,12.80
2013,05,04,07,49,12.80
2013,05,04,07,50,12.90
2013,05,04,07,51,12.90
2013,05,04,07,52,12.90
2013,05,04,07,53,12.80
2013,05,04,07,54,12.80
2013,05,04,07,55,12.80
2013,05,04,07,56,12.70
2013,05,04,07,57,12.70
2013,05,04,07,58,12.70
2013,05,04,07,59,12.60
2013,05,04,08,00,12.60
2013,05,04,08,01,12.60
2013,05,04,08,02,12.60
2013,05,04,08,03,12.70
2013,05,04,08,04,12.70
2013,05,04,08,05,12.70
2013,05,04,08,06,12.70
2013,05,04,08,07,12.80
2013,05,04,08,08,12.80
2013,05,04,08,09,12.80
2013,05,04,08,10,12.90
2013,05,04,08,11,12.90
2013,05,04,08,12,12.80
2013,05,04,08,13,12.90
2013,05,04,08,14,12.90
2013,05,04,08,15,12.90
2013,05,04,08,16,12.90
2013,05,04,08,17,12.90
2013,05,04,08,18,12.90
2013,05,04,08,19,12.80
2013,05,04,08,20,12.80
2013,05,04,08,21,12.90
2013,05,04,08,22,12.90
2013,05,04,08,23,12.90
2013,05,04,08,24,13.00
2013,05,04,08,25,13.00
2013,05,04,08,26,13.00
2013,05,04,08,27,13.10
2013,05,04,08,28,13.10
2013,05,04,08,29,13.10
2013,05,04,08,30,13.20
2013,05,04,08,31,13.30
2013,05,04,08,32,13.30
2013,05,04,08,33,13.50
2013,05,04,08,34,13.60
2013,05,04,08,35,13.60
2013,05,04,08,36,13.70
2013,05,04,08,37,13.70
2013,05,04,08,38,13.70
2013,05,04,08,39,13.70
2013,05,04,08,40,13.80
2013,05,04,08,41,13.80
2013,05,04,08,42,13.80
2013,05,04,08,43,13.80
2013,05,04,08,44,13.80
2013,05,04,08,45,13.90
2013,05,04,08,46,13.90
2013,05,04,08,47,14.00
2013,05,04,08,48,14.00
2013,05,04,08,49,14.00
2013,05,04,08,50,14.00
2013,05,04,08,51,13.90
2013,05,04,08,52,13.90
2013,05,04,08,53,13.80
2013,05,04,08,54,13.80
2013,05,04,08,55,13.80
2013,05,04,08,56,13.80
2013,05,04,08,57,13.80
2013,05,04,08,58,13.80
2013,05,04,08,59,13.80
2013,05,04,09,00,13.80
2013,05,04,09,01,13.80
2013,05,04,09,02,13.80
2013,05,04,09,03,13.70
2013,05,04,09,04,13.70
2013,05,04,09,05,13.70
2013,05,04,09,06,13.60
2013,05,04,09,07,13.60
2013,05,04,09,08,13.60
2013,05,04,09,09,13.60
2013,05,04,09,10,13.60
2013,05,04,09,11,13.60
2013,05,04,09,12,13.70
2013,05,04,09,13,13.60
2013,05,04,09,14,13.60
2013,05,04,09,15,13.50
2013,05,04,09,16,13.40
2013,05,04,09,17,13.30
2013,05,04,09,18,13.20
2013,05,04,09,19,13.10
2013,05,04,09,20,13.00
2013,05,04,09,21,13.00
2013,05,04,09,22,12.90
2013,05,04,09,23,13.00
2013,05,04,09,24,13.00
2013,05,04,09,25,13.20
2013,05,04,09,26,13.30
2013,05,04,09,27,13.30
2013,05,04,09,28,13.40
2013,05,04,09,29,13.40
2013,05,04,09,30,13.50
2013,05,04,09,31,13.50
2013,05,04,09,32,13.50
2013,05,04,09,33,13.50
2013,05,04,09,34,13.50
2013,05,04,09,35,13.60
2013,05,04,09,36,13.60
2013,05,04,09,37,13.60
2013,05,04,09,38,13.60
2013,05,04,09,39,13.60
2013,05,04,09,40,13.60
2013,05,04,09,41,13.60
2013,05,04,09,42,13.70
2013,05,04,09,43,13.70
2013,05,04,09,44,13.80
2013,05,04,09,45,13.90
2013,05,04,09,46,14.00
2013,05,04,09,47,14.10
2013,05,04,09,48,14.10
2013,05,04,09,49,14.20
2013,05,04,09,50,14.20
2013,05,04,09,51,14.30
2013,05,04,09,52,14.30
2013,05,04,09,53,14.40
2013,05,04,09,54,14.40
2013,05,04,09,55,14.40
2013,05,04,09,56,14.30
2013,05,04,09,57,14.30
2013,05,04,09,58,14.20
2013,05,04,09,59,14.30
2013,05,04,10,00,14.30
2013,05,04,10,01,14.40
2013,05,04,10,02,14.50
2013,05,04,10,03,14.60
2013,05,04,10,04,14.70
2013,05,04,10,05,14.80
2013,05,04,10,06,14.80
2013,05,04,10,07,14.90
2013,05,04,10,08,15.00
2013,05,04,10,09,15.00
2013,05,04,10,10,15.00
2013,05,04,10,11,15.00
2013,05,04,10,12,15.00
2013,05,04,10,13,15.10
2013,05,04,10,14,15.20
2013,05,04,10,15,15.20
2013,05,04,10,16,15.20
2013,05,04,10,17,15.20
2013,05,04,10,18,15.10
2013,05,04,10,19,15.00
2013,05,04,10,20,15.00
2013,05,04,10,21,15.10
2013,05,04,10,22,15.20
2013,05,04,10,23,15.30
2013,05,04,10,24,15.30
2013,05,04,10,25,15.40
2013,05,04,10,26,15.40
2013,05,04,10,27,15.50
2013,05,04,10,28,15.60
2013,05,04,10,29,15.60
2013,05,04,10,30,15.70
2013,05,04,10,31,15.80
2013,05,04,10,32,15.80
2013,05,04,10,33,15.90
2013,05,04,10,34,15.90
2013,05,04,10,35,15.90
2013,05,04,10,36,15.90
2013,05,04,10,37,15.80
2013,05,04,10,38,15.60
2013,05,04,10,39,15.50
2013,05,04,10,40,15.40
2013,05,04,10,41,15.30
2013,05,04,10,42,15.30
2013,05,04,10,43,15.30
2013,05,04,10,44,15.10
2013,05,04,10,45,15.00
2013,05,04,10,46,15.00
2013,05,04,10,47,15.00
2013,05,04,10,48,15.00
2013,05,04,10,49,15.00
2013,05,04,10,50,15.00
2013,05,04,10,51,14.90
2013,05,04,10,52,14.70
2013,05,04,10,53,14.60
2013,05,04,10,54,14.50
2013,05,04,10,55,14.40
2013,05,04,10,56,14.40
2013,05,04,10,57,14.30
2013,05,04,10,58,14.20
2013,05,04,10,59,14.10
2013,05,04,11,00,14.10
2013,05,04,11,01,14.20
2013,05,04,11,02,14.20
2013,05,04,11,03,14.20
2013,05,04,11,04,14.20
2013,05,04,11,05,14.10
2013,05,04,11,06,14.00
2013,05,04,11,07,13.90
2013,05,04,11,08,13.90
2013,05,04,11,09,13.90
2013,05,04,11,10,14.00
2013,05,04,11,11,14.00
2013,05,04,11,12,13.90
2013,05,04,11,13,13.90
2013,05,04,11,14,13.90
2013,05,04,11,15,13.90
2013,05,04,11,16,13.90
2013,05,04,11,17,13.90
2013,05,04,11,18,13.90
2013,05,04,11,19,13.90
2013,05,04,11,20,13.90
2013,05,04,11,21,13.90
2013,05,04,11,22,13.90
2013,05,04,11,23,13.90
2013,05,04,11,24,14.00
2013,05,04,11,25,14.00
2013,05,04,11,26,14.10
2013,05,04,11,27,14.10
2013,05,04,11,28,14.10
2013,05,04,11,29,14.10
2013,05,04,11,30,14.10
2013,05,04,11,31,14.10
2013,05,04,11,32,14.20
2013,05,04,11,33,14.20
2013,05,04,11,34,14.30
2013,05,04,11,35,14.40
2013,05,04,11,36,14.60
2013,05,04,11,37,14.70
2013,05,04,11,38,14.80
2013,05,04,11,39,14.90
2013,05,04,11,40,15.00
2013,05,04,11,41,15.00
2013,05,04,11,42,15.10
2013,05,04,11,43,15.30
2013,05,04,11,44,15.50
2013,05,04,11,45,15.60
2013,05,04,11,46,15.60
2013,05,04,11,47,15.60
2013,05,04,11,48,15.60
2013,05,04,11,49,15.60
2013,05,04,11,50,15.60
2013,05,04,11,51,15.70
2013,05,04,11,52,15.70
2013,05,04,11,53,15.80
2013,05,04,11,54,15.80
2013,05,04,11,55,15.90
2013,05,04,11,56,15.90
2013,05,04,11,57,15.90
2013,05,04,11,58,16.00
2013,05,04,11,59,16.10
2013,05,04,12,00,16.10
2013,05,04,12,01,16.20
2013,05,04,12,02,16.20
2013,05,04,12,03,16.30
2013,05,04,12,04,16.40
2013,05,04,12,05,16.40
2013,05,04,12,06,16.50
2013,05,04,12,07,16.50
2013,05,04,12,08,16.60
2013,05,04,12,09,16.60
2013,05,04,12,10,16.70
2013,05,04,12,11,16.70
2013,05,04,12,12,16.80
2013,05,04,12,13,16.80
2013,05,04,12,14,16.80
2013,05,04,12,15,16.90
2013,05,04,12,16,16.90
2013,05,04,12,17,16.80
2013,05,04,12,18,16.70
2013,05,04,12,19,16.60
2013,05,04,12,20,16.60
2013,05,04,12,21,16.60
2013,05,04,12,22,16.60
2013,05,04,12,23,16.70
2013,05,04,12,24,16.80
2013,05,04,12,25,16.90
2013,05,04,12,26,17.00
2013,05,04,12,27,17.10
2013,05,04,12,28,17.20
2013,05,04,12,29,17.30
2013,05,04,12,30,17.40
2013,05,04,12,31,17.50
2013,05,04,12,32,17.50
2013,05,04,12,33,17.60
2013,05,04,12,34,17.60
2013,05,04,12,35,17.60
2013,05,04,12,36,17.60
2013,05,04,12,37,17.70
2013,05,04,12,38,17.60
2013,05,04,12,39,17.60
2013,05,04,12,40,17.70
2013,05,04,12,41,17.70
2013,05,04,12,42,17.80
2013,05,04,12,43,17.80
2013,05,04,12,44,17.80
2013,05,04,12,45,17.90
2013,05,04,12,46,17.90
2013,05,04,12,47,17.90
2013,05,04,12,48,18.10
2013,05,04,12,49,18.20
2013,05,04,12,50,18.30
2013,05,04,12,51,18.30
2013,05,04,12,52,18.40
2013,05,04,12,53,18.40
2013,05,04,12,54,18.40
2013,05,04,12,55,18.40
2013,05,04,12,56,18.40
2013,05,04,12,57,18.40
2013,05,04,12,58,18.40
2013,05,04,12,59,18.40
2013,05,04,13,00,18.40
2013,05,04,13,01,18.50
2013,05,04,13,02,18.50
2013,05,04,13,03,18.60
2013,05,04,13,04,18.70
2013,05,04,13,05,18.80
2013,05,04,13,06,18.80
2013,05,04,13,07,18.90
2013,05,04,13,08,18.90
2013,05,04,13,09,18.90
2013,05,04,13,10,18.90
2013,05,04,13,11,18.80
2013,05,04,13,12,18.90
2013,05,04,13,13,18.90
2013,05,04,13,14,18.80
2013,05,04,13,15,18.70
2013,05,04,13,16,18.70
2013,05,04,13,17,18.60
2013,05,04,13,18,18.50
2013,05,04,13,19,18.50
2013,05,04,13,20,18.50
2013,05,04,13,21,18.40
2013,05,04,13,22,18.50
2013,05,04,13,23,18.50
2013,05,04,13,24,18.50
2013,05,04,13,25,18.40
2013,05,04,13,26,18.30
2013,05,04,13,27,18.30
2013,05,04,13,28,18.40
2013,05,04,13,29,18.60
2013,05,04,13,30,18.60
2013,05,04,13,31,18.70
2013,05,04,13,32,18.70
2013,05,04,13,33,18.70
2013,05,04,13,34,18.70
2013,05,04,13,35,18.80
2013,05,04,13,36,18.90
2013,05,04,13,37,18.90
2013,05,04,13,38,18.90
2013,05,04,13,39,18.80
2013,05,04,13,40,18.80
2013,05,04,13,41,18.80
2013,05,04,13,42,18.80
2013,05,04,13,43,18.80
2013,05,04,13,44,18.90
2013,05,04,13,45,18.90
2013,05,04,13,46,18.90
2013,05,04,13,47,18.90
2013,05,04,13,48,18.90
2013,05,04,13,49,18.80
2013,05,04,13,50,18.80
2013,05,04,13,51,18.70
2013,05,04,13,52,18.80
2013,05,04,13,53,18.80
2013,05,04,13,54,18.80
2013,05,04,13,55,18.80
2013,05,04,13,56,18.80
2013,05,04,13,57,18.80
2013,05,04,13,58,18.90
2013,05,04,13,59,19.00
2013,05,04,14,00,19.20
2013,05,04,14,01,19.30
2013,05,04,14,02,19.30
2013,05,04,14,03,19.30
2013,05,04,14,04,19.30
2013,05,04,14,05,19.30
2013,05,04,14,06,19.20
2013,05,04,14,07,19.10
2013,05,04,14,08,19.10
2013,05,04,14,09,19.00
2013,05,04,14,10,19.00
2013,05,04,14,11,19.10
2013,05,04,14,12,19.20
2013,05,04,14,13,19.20
2013,05,04,14,14,19.20
2013,05,04,14,15,19.20
2013,05,04,14,16,19.20
2013,05,04,14,17,19.20
2013,05,04,14,18,19.10
2013,05,04,14,19,19.10
2013,05,04,14,20,19.10
2013,05,04,14,21,19.10
2013,05,04,14,22,19.20
2013,05,04,14,23,19.20
2013,05,04,14,24,19.20
2013,05,04,14,25,19.20
2013,05,04,14,26,19.20
2013,05,04,14,27,19.20
2013,05,04,14,28,19.20
2013,05,04,14,29,19.30
2013,05,04,14,30,19.30
2013,05,04,14,31,19.40
2013,05,04,14,32,19.40
2013,05,04,14,33,19.40
2013,05,04,14,34,19.50
2013,05,04,14,35,19.60
2013,05,04,14,36,19.70
2013,05,04,14,37,19.80
2013,05,04,14,38,20.00
2013,05,04,14,39,20.10
2013,05,04,14,40,20.10
2013,05,04,14,41,19.90
2013,05,04,14,42,19.70
2013,05,04,14,43,19.40
2013,05,04,14,44,19.30
2013,05,04,14,45,19.10
2013,05,04,14,46,18.80
2013,05,04,14,47,18.70
2013,05,04,14,48,18.70
2013,05,04,14,49,18.80
2013,05,04,14,50,18.90
2013,05,04,14,51,19.00
2013,05,04,14,52,19.10
2013,05,04,14,53,19.20
2013,05,04,14,54,19.30
2013,05,04,14,55,19.30
2013,05,04,14,56,19.30
2013,05,04,14,57,19.30
2013,05,04,14,58,19.20
2013,05,04,14,59,19.20
2013,05,04,15,00,19.20
2013,05,04,15,01,19.20
2013,05,04,15,02,19.20
2013,05,04,15,03,19.30
2013,05,04,15,04,19.40
2013,05,04,15,05,19.40
2013,05,04,15,06,19.40
2013,05,04,15,07,19.50
2013,05,04,15,08,19.50
2013,05,04,15,09,19.50
2013,05,04,15,10,19.60
2013,05,04,15,11,19.60
2013,05,04,15,12,19.70
2013,05,04,15,13,19.80
2013,05,04,15,14,19.90
2013,05,04,15,15,20.00
2013,05,04,15,16,20.10
2013,05,04,15,17,20.20
2013,05,04,15,18,20.30
2013,05,04,15,19,20.30
2013,05,04,15,20,20.30
2013,05,04,15,21,20.20
2013,05,04,15,22,20.20
2013,05,04,15,23,20.10
2013,05,04,15,24,20.10
2013,05,04,15,25,20.10
2013,05,04,15,26,20.10
2013,05,04,15,27,20.10
2013,05,04,15,28,20.10
2013,05,04,15,29,20.10
2013,05,04,15,30,20.00
2013,05,04,15,31,20.10
2013,05,04,15,32,20.20
2013,05,04,15,33,20.30
2013,05,04,15,34,20.30
2013,05,04,15,35,20.30
2013,05,04,15,36,20.40
2013,05,04,15,37,20.40
2013,05,04,15,38,20.50
2013,05,04,15,39,20.60
2013,05,04,15,40,20.60
2013,05,04,15,41,20.70
2013,05,04,15,42,20.70
2013,05,04,15,43,20.70
2013,05,04,15,44,20.70
2013,05,04,15,45,20.70
2013,05,04,15,46,20.70
2013,05,04,15,47,20.70
2013,05,04,15,48,20.80
2013,05,04,15,49,20.90
2013,05,04,15,50,21.00
2013,05,04,15,51,21.10
2013,05,04,15,52,21.20
2013,05,04,15,53,21.20
2013,05,04,15,54,21.20
2013,05,04,15,55,21.30
2013,05,04,15,56,21.30
2013,05,04,15,57,21.40
2013,05,04,15,58,21.40
2013,05,04,15,59,21.50
2013,05,04,16,00,21.50
2013,05,04,16,01,21.60
2013,05,04,16,02,21.70
2013,05,04,16,03,21.70
2013,05,04,16,04,21.70
2013,05,04,16,05,21.70
2013,05,04,16,06,21.80
2013,05,04,16,07,21.80
2013,05,04,16,08,21.80
2013,05,04,16,09,21.80
2013,05,04,16,10,21.80
2013,05,04,16,11,21.80
2013,05,04,16,12,21.80
2013,05,04,16,13,21.90
2013,05,04,16,14,21.90
2013,05,04,16,15,21.80
2013,05,04,16,16,21.80
2013,05,04,16,17,21.80
2013,05,04,16,18,21.80
2013,05,04,16,19,21.80
2013,05,04,16,20,21.80
2013,05,04,16,21,21.80
2013,05,04,16,22,21.70
2013,05,04,16,23,21.70
2013,05,04,16,24,21.60
2013,05,04,16,25,21.50
2013,05,04,16,26,21.50
2013,05,04,16,27,21.40
2013,05,04,16,28,21.40
2013,05,04,16,29,21.40
2013,05,04,16,30,21.50
2013,05,04,16,31,21.70
2013,05,04,16,32,21.80
2013,05,04,16,33,21.80
2013,05,04,16,34,21.90
2013,05,04,16,35,21.90
2013,05,04,16,36,22.00
2013,05,04,16,37,22.10
2013,05,04,16,38,22.20
2013,05,04,16,39,22.20
2013,05,04,16,40,22.30
2013,05,04,16,41,22.30
2013,05,04,16,42,22.20
2013,05,04,16,43,22.20
2013,05,04,16,44,22.20
2013,05,04,16,45,22.20
2013,05,04,16,46,22.20
2013,05,04,16,47,22.10
2013,05,04,16,48,22.20
2013,05,04,16,49,22.20
2013,05,04,16,50,22.30
2013,05,04,16,51,22.30
2013,05,04,16,52,22.40
2013,05,04,16,53,22.40
2013,05,04,16,54,22.50
2013,05,04,16,55,22.50
2013,05,04,16,56,22.50
2013,05,04,16,57,22.40
2013,05,04,16,58,22.30
2013,05,04,16,59,22.20
2013,05,04,17,00,22.30
2013,05,04,17,01,22.30
2013,05,04,17,02,22.40
2013,05,04,17,03,22.40
2013,05,04,17,04,22.40
2013,05,04,17,05,22.30
2013,05,04,17,06,22.30
2013,05,04,17,07,22.30
2013,05,04,17,08,22.30
2013,05,04,17,09,22.40
2013,05,04,17,10,22.40
2013,05,04,17,11,22.40
2013,05,04,17,12,22.40
2013,05,04,17,13,22.40
2013,05,04,17,14,22.40
2013,05,04,17,15,22.40
2013,05,04,17,16,22.40
2013,05,04,17,17,22.40
2013,05,04,17,18,22.40
2013,05,04,17,19,22.40
2013,05,04,17,20,22.40
2013,05,04,17,21,22.40